TimeMST,TemperatureF,Dew PointF,Humidity,Sea Level PressureIn,VisibilityMPH,Wind Direction,Wind SpeedMPH,Gust SpeedMPH,PrecipitationIn,Events,Conditions,WindDirDegrees,DateUTC
12:53 AM,21.9,12.0,66,29.93,10.0,NW,11.5,-,N/A,,Clear,310,2013-01-29 07:53:00
1:53 AM,21.0,12.0,68,29.93,10.0,West,12.7,-,N/A,,Clear,270,2013-01-29 08:53:00
2:53 AM,19.0,10.0,68,29.94,10.0,West,5.8,-,N/A,,Clear,280,2013-01-29 09:53:00
3:53 AM,18.0,10.0,71,29.94,10.0,NNE,4.6,-,N/A,,Clear,20,2013-01-29 10:53:00
4:53 AM,19.0,12.0,74,29.94,10.0,NNW,3.5,-,N/A,,Overcast,340,2013-01-29 11:53:00
5:53 AM,18.0,10.9,74,29.94,10.0,Calm,Calm,-,N/A,,Partly Cloudy,0,2013-01-29 12:53:00
6:53 AM,15.1,10.9,84,29.96,10.0,Calm,Calm,-,N/A,,Scattered Clouds,0,2013-01-29 13:53:00
7:53 AM,16.0,12.0,84,29.99,10.0,Calm,Calm,-,N/A,,Overcast,0,2013-01-29 14:53:00
8:53 AM,19.9,12.9,74,29.97,10.0,Calm,Calm,-,N/A,,Overcast,0,2013-01-29 15:53:00
9:53 AM,23.0,14.0,68,29.96,10.0,SE,4.6,-,N/A,,Overcast,140,2013-01-29 16:53:00
10:53 AM,26.1,14.0,60,29.96,10.0,East,3.5,-,N/A,,Scattered Clouds,90,2013-01-29 17:53:00
11:53 AM,28.9,12.0,49,29.95,10.0,Calm,Calm,-,N/A,,Clear,0,2013-01-29 18:53:00
12:53 PM,28.0,14.0,56,29.95,10.0,NW,5.8,-,N/A,,Clear,320,2013-01-29 19:53:00
1:53 PM,28.0,16.0,61,29.95,10.0,NNW,8.1,-,N/A,,Mostly Cloudy,330,2013-01-29 20:53:00
2:53 PM,28.9,18.0,64,29.96,10.0,North,6.9,-,N/A,,Overcast,350,2013-01-29 21:53:00
3:53 PM,28.0,17.1,63,29.99,10.0,NNW,6.9,-,N/A,,Overcast,330,2013-01-29 22:53:00
4:53 PM,27.0,19.0,72,30.01,10.0,NW,6.9,-,N/A,,Scattered Clouds,320,2013-01-29 23:53:00
5:53 PM,27.0,17.1,66,30.06,10.0,North,11.5,-,N/A,,Mostly Cloudy,350,2013-01-30 00:53:00
6:11 PM,26.6,19.4,74,29.96,2.5,NNW,11.5,-,0.00,Snow,Light Snow,340,2013-01-30 01:11:00
6:19 PM,26.6,21.2,80,29.97,1.2,North,9.2,-,0.00,Snow,Light Snow,360,2013-01-30 01:19:00
6:32 PM,24.8,21.2,86,29.97,3.0,North,5.8,-,0.00,Snow,Light Snow,360,2013-01-30 01:32:00
6:51 PM,24.8,21.2,86,29.98,10.0,Calm,Calm,-,0.00,,Overcast,0,2013-01-30 01:51:00
6:53 PM,23.0,21.0,92,30.11,10.0,Calm,Calm,-,0.00,,Overcast,0,2013-01-30 01:53:00
7:53 PM,24.1,21.9,91,30.14,10.0,WSW,3.5,-,N/A,,Overcast,240,2013-01-30 02:53:00
8:53 PM,21.9,19.9,92,30.17,10.0,Calm,Calm,-,N/A,,Clear,0,2013-01-30 03:53:00
9:53 PM,18.0,16.0,92,30.19,10.0,West,4.6,-,N/A,,Clear,260,2013-01-30 04:53:00
10:53 PM,21.0,18.0,88,30.19,10.0,Calm,Calm,-,N/A,,Clear,0,2013-01-30 05:53:00
11:28 PM,15.8,12.2,86,30.09,1.8,Calm,Calm,-,N/A,,Clear,0,2013-01-30 06:28:00
11:35 PM,17.6,14.0,86,30.09,3.0,Calm,Calm,-,N/A,,Clear,0,2013-01-30 06:35:00
11:53 PM,19.0,17.1,92,30.20,10.0,WSW,3.5,-,N/A,,Clear,250,2013-01-30 06:53:00